Showing default

GHGSAT-C5, 52744

Orbit data source: Space-Track

GHGSAT-C5, 52744 is a payload satellite owned by GHG (CA) in SSO that was launched on Wed, 25 May 2022 UTC via an FALCON 9 launch vehicle from the Air Force Eastern Test Range (AFETR). Payload-class satellites include a variety of spacecraft equipped with specific instruments for various scientific and technological missions. These include communications satellites like Starlink; space stations such as the ISS; scientific satellites like the Hubble; Earth observation satellites from companies like Planet Labs, Umbra, and HawkEye 360; GPS; miniature CubeSats for education and research; and military/defense satellites.

Loading next visibility...
Identifier
52744, 2022-057N
Orbit
SSO
Country
Flag of CACA
Related business
Manufacturer
UTIAS-SFL
Mission
Operational Commercial Earth Obs Sci
Bus & Motor
NEMO-V1, Unknown motor
Mass
15 kg wet, 15 kg dry
Launch date (UTC)
2022-05-25 (4 years ago)
Launch vehicle
FALCON 9
Launch site
Air Force Eastern Test Range (AFETR)
Object type
Payload
Rocket body
Debris
Shape & HBR
Box, 1.0 m
Radar Cross Section
0.100 m², Medium (>0.1 m² and < 1m²)

Expand to show TLE details & history
Last TLE update: 16 hours ago

TLE from 16 hours ago
0 GHGSAT-C5
1 52744U 22057N   25348.94008505  .00005667  00000-0  18959-3 0  9990
2 52744  97.6422 124.7703 0008328  57.0644 303.1396 15.31369693197317
Epoch: 2025-12-14T22:33Z
TLE epoch observation values (Epoch: 2025-12-14T22:33:43.348Z)
Latitude
-0.00006°
Longitude
62.49389°
Altitude
471.708 km
Speed
7.632 km/s
True Right ascension
08h 19m 04s
True Declination
0° 00' 00"
Sunlit
Object was in full shadow at epoch
Visualization orbit readout
Latitude
Unknown
Longitude
Unknown
Altitude
Unknown
Speed
Unknown
Apparent Right ascension
Unknown
Apparent Declination
Unknown
Sunlit
N/A
Visualization observer readout
Local Sidereal Time
13:23:46
Azimuth
Unknown
Elevation
Unknown
Doppler factor
Unknown
Orbital elements
Apogee altitude
474.388 km
Perigee altitude
462.984 km
Semi-major axis
6,846.823 km
Eccentricity
0.00083
Inclination
97.6422°
RAAN
124.7703°
Arg. of periapsis
57.0644°
True anomaly
303.05965°
Mean anomaly
303.1396°
Eccentric anomaly
303.09963°
Mean motion
3.83098 °/min
Orbital period
93.97 mins
BSTAR
0.00018959
Loading maneuver chart data...
Computing Atmospheric mass density...

Documentation

Showing up to 5 results
|